Regional Weather Roundup
Issued by NWS

Home | Current Version | Previous Version | Graphics & Text | Print | Product List | Glossary On
Versions: 1 2 3 4 5 6 7 8 9 10 11 12 13 14 15 16 17 18 19 20 21 22 23 24 25 26 27 28 29 30 31 32 33 34 35 36 37 38 39 40 41 42 43 44 45 46 47 48 49 50
000
ASUS43 KIND 242200
RWRIN

WEATHER ROUNDUP FOR INDIANA
NATIONAL WEATHER SERVICE INDIANAPOLIS IN
600 PM EDT SAT JUN 24 2017

NOTE: "FAIR" INDICATES FEW OR NO CLOUDS BELOW 12,000 FEET WITH NO
SIGNIFICANT WEATHER AND/OR OBSTRUCTIONS TO VISIBILITY.

* - STATION DOES NOT REPORT WEATHER SUCH AS PRECIPITATION OR FOG.

+ - STATION NOT QUALITY CONTROLLED BY THE NATIONAL WEATHER SERVICE.
    USE DATA WITH CAUTION...ESPECIALLY DEWPOINT AND RELATIVE
    HUMIDITY OBSERVATIONS.

INZ001>003-010>013-019-020-242300-
NORTHWEST INDIANA

CITY           SKY/WX    TMP DP  RH WIND       PRES   REMARKS
GARY /AIRPORT/ PTSUNNY   75  39  27 W26       30.00S
KNOX *+        MOSUNNY   72  36  26 W14       29.99R
MICHIGAN CITY+ SUNNY     72  52  49 N5        30.00S
MONTICELLO +   MOSUNNY   74  49  41 W17       30.02R

$$

LMZ046-743>745-242300-
SOUTHERN LAKE MICHIGAN

STATION/POSITION TIME  TEMP    WIND        PRES    WAVE
                       AIR SEA DIR/SP/G            HT
                 (UTC) (F)     (DEG/KT/KT) (MB)    (FT)
BURNS HARBOR     2140   70     280/ 12/ 18 1016.3S
MICHIGAN CITY    2130   70     330/  6/  7   N/A
5NW MICH CITY    2150   68 69  340/  6/  8   N/A     2

$$

INZ004-005-014>016-021>024-242300-
NORTH CENTRAL INDIANA

CITY           SKY/WX    TMP DP  RH WIND       PRES   REMARKS
GOSHEN         PTSUNNY   73  49  42 NW18G24   29.98R
PERU/GRISSOM   MOSUNNY   74  50  42 W17       29.99S
SOUTH BEND     SUNNY     72  50  45 NW17G24   29.99S

$$

INZ006>009-017-018-025>027-242300-
NORTHEAST INDIANA

CITY           SKY/WX    TMP DP  RH WIND       PRES   REMARKS
FORT WAYNE     MOSUNNY   75  52  44 W15       29.97S
KENDALLVILLE + PTSUNNY   72  51  47 NW9       29.97F

$$

INZ028-029-035-036-043>045-051>053-242300-
WEST CENTRAL INDIANA

CITY           SKY/WX    TMP DP  RH WIND       PRES   REMARKS
CRAWFORDSVL +  MOSUNNY   71  49  45 W15       30.06R
GREENCASTLE +  MOSUNNY   73  50  43 NW7       30.06R
LAFAYETTE      MOSUNNY   73  50  44 NW14      30.03R
TERRE HAUTE    MOSUNNY   76  48  37 W15       30.06S

$$

INZ030>032-037>040-046>048-054>057-064-065-242300-
CENTRAL INDIANA

CITY           SKY/WX    TMP DP  RH WIND       PRES   REMARKS
COLUMBUS       MOSUNNY   75  50  41 W14G21    30.03S
GREENWOOD *+   MOSUNNY   75  50  41 W12G21    30.04R
INDIANAPOLIS   MOSUNNY   76  52  43 W14       30.03S
-EAGLE CREEK   MOSUNNY   75  50  41 W15       30.02S
KOKOMO +       MOSUNNY   73  52  47 W17       30.02R
MT COMFORT *+  MOSUNNY   75  54  46 NW18G24   30.03S
SHELBYVILLE    MOSUNNY   78  52  40 W15G21    30.01S

$$

INZ033-034-041-042-049-050-058-059-242300-
EAST CENTRAL INDIANA

CITY           SKY/WX    TMP DP  RH WIND       PRES   REMARKS
MUNCIE         MOSUNNY   76  51  41 W12       30.00S
RICHMOND +     MOSUNNY   73  54  49 W17       30.01S

$$

INZ060-061-067>069-081>083-085>088-242300-
SOUTHWEST INDIANA

CITY           SKY/WX    TMP DP  RH WIND       PRES   REMARKS
EVANSVILLE     PTSUNNY   76  52  43 NW12G20   30.07S
HUNTINGBURG *+ CLOUDY    76  57  51 NW15      30.06S

$$

INZ062-063-066-070>080-084-089>092-242300-
SOUTH CENTRAL AND SOUTHEAST INDIANA

CITY           SKY/WX    TMP DP  RH WIND       PRES   REMARKS
BLOOMINGTON    MOSUNNY   76  50  40 W17       30.05S
MADISON *+     MOSUNNY   77  52  41 NW8G18    30.05S
SEYMOUR +      MOSUNNY  N/A N/A N/A W13G21    30.03S

$$





USA.gov is the U.S. government's official web portal to all federal, state and local government web resources and services.